Weather History for LGAL - January, 2013

Change the Weather History Date:

Tuesday, January 1, 2013

  Actual Average Record
Temperature  
Mean Temperature 42 °F -  
Max Temperature 47 °F 47 °F 57 °F (2003)
Min Temperature 37 °F 34 °F 21 °F (2009)
Degree Days  
Heating Degree Days 23    
Moisture  
Dew Point 35 °F    
Average Humidity 75    
Maximum Humidity 93    
Minimum Humidity 50    
Precipitation  
Precipitation 0.00 in 0.08 in - ()
Sea Level Pressure  
Sea Level Pressure 30.21 in    
Wind  
Wind Speed - ()    
Max Wind Speed -    
Max Gust Speed -    
Visibility 6.0 miles    
Events      
Averages and records for this station are not official NWS values.
T = Trace of Precipitation, MM = Missing Value Source: Averaged Metar Reports

Daily Weather History Graph

Daily Weather History Graph

Search for Another Location

Airport or City:

Trip Planner

Search our weather history database for the weather conditions in past years. The results will help you decide how hot, cold, wet, or windy it might be!

Date:

Astronomy

Jan. 01, 2013 Rise Set
Actual Time 7:40 AM EET 4:59 PM EET
Civil Twilight 7:09 AM EET 5:30 PM EET
Nautical Twilight 6:35 AM EET 6:04 PM EET
Astronomical Twilight 6:02 AM EET 6:37 PM EET
Moon 9:12 PM EET (1/1) 9:41 AM EET (1/1)
Length of Visible Light 10h 20m
Length of Day
9h 18m
Waning Gibbous, 85% of the Moon is Illuminated
Jan 1
Waning Gibbous
Jan 5
Last Quarter
Jan 11
New
Jan 19
First Quarter
Jan 27
Full

Hourly Weather History & Observations

Time (EET) Temp. Dew Point Humidity Pressure Visibility Wind Dir Wind Speed Gust Speed Precip Events Conditions
12:20 AM 42.8 °F 35.6 °F 76% 30.24 in - North - - N/A   Mostly Cloudy
12:50 AM 42.8 °F 35.6 °F 76% 30.24 in - North - - N/A   Mostly Cloudy
1:20 AM 42.8 °F 35.6 °F 76% 30.24 in - North - - N/A   Mostly Cloudy
1:50 AM 42.8 °F 35.6 °F 76% 30.21 in - North - - N/A   Mostly Cloudy
2:00 AM 43 °F 36 °F 67% 30.24 in 6 mi Calm Calm - -   Partly Cloudy
2:20 AM 42.8 °F 35.6 °F 76% 30.21 in - North - - N/A   Mostly Cloudy
2:50 AM 42.8 °F 35.6 °F 76% 30.21 in - North - - N/A   Mostly Cloudy
3:20 AM 42.8 °F 35.6 °F 76% 30.21 in - North - - N/A   Mostly Cloudy
3:50 AM 42.8 °F 33.8 °F 70% 30.21 in - North - - N/A   Mostly Cloudy
4:20 AM 42.8 °F 35.6 °F 76% 30.21 in - North - - N/A   Mostly Cloudy
4:50 AM 42.8 °F 35.6 °F 76% 30.21 in - North - - N/A   Mostly Cloudy
5:20 AM 42.8 °F 35.6 °F 76% 30.21 in - North - - N/A   Mostly Cloudy
5:50 AM 42.8 °F 35.6 °F 76% 30.18 in - North - - N/A   Mostly Cloudy
6:50 AM 42.8 °F 35.6 °F 76% 30.18 in - North - - N/A   Mostly Cloudy
7:20 AM 42.8 °F 35.6 °F 76% 30.18 in - North - - N/A   Mostly Cloudy
7:50 AM 41.0 °F 32.0 °F 70% 30.21 in - North - - N/A   Mostly Cloudy
8:00 AM 41 °F 32 °F 61% 30.21 in 6 mi Calm Calm - -   Partly Cloudy
8:20 AM 41.0 °F 32.0 °F 70% 30.21 in - North - - N/A   Mostly Cloudy
8:50 AM 41.0 °F 32.0 °F 70% 30.21 in - North - - N/A   Mostly Cloudy
9:20 AM 42.8 °F 32.0 °F 66% 30.21 in - North - - N/A   Scattered Clouds
9:50 AM 44.6 °F 33.8 °F 66% 30.21 in - North - - N/A   Scattered Clouds
10:20 AM 44.6 °F 33.8 °F 66% 30.21 in - North - - N/A   Scattered Clouds
10:50 AM 44.6 °F 30.2 °F 57% 30.21 in - North - - N/A   Partly Cloudy
11:20 AM 44.6 °F 30.2 °F 57% 30.21 in - North - - N/A   Partly Cloudy
11:50 AM 46.4 °F 28.4 °F 50% 30.21 in - North - - N/A   Scattered Clouds
12:20 PM 46.4 °F 28.4 °F 50% 30.21 in - North - - N/A   Scattered Clouds
12:50 PM 46.4 °F 30.2 °F 53% 30.21 in - North - - N/A   Mostly Cloudy
1:20 PM 46.4 °F 30.2 °F 53% 30.21 in - North - - N/A   Mostly Cloudy
1:50 PM 44.6 °F 35.6 °F 71% 30.18 in - North - - N/A   Scattered Clouds
2:00 PM 45 °F 36 °F 61% 30.19 in 6 mi Calm Calm - -   Partly Cloudy
2:20 PM 44.6 °F 35.6 °F 71% 30.18 in - North - - N/A   Scattered Clouds
2:50 PM 44.6 °F 37.4 °F 76% 30.18 in - North - - N/A   Partly Cloudy
3:20 PM 44.6 °F 37.4 °F 76% 30.18 in - North - - N/A   Partly Cloudy
3:50 PM 46.4 °F 37.4 °F 71% 30.18 in - North - - N/A   Partly Cloudy
4:20 PM 46.4 °F 37.4 °F 71% 30.18 in - North - - N/A   Partly Cloudy
4:50 PM 42.8 °F 37.4 °F 81% 30.18 in - North - - N/A   Partly Cloudy
5:20 PM 42.8 °F 37.4 °F 81% 30.18 in - North - - N/A   Partly Cloudy
5:50 PM 41.0 °F 35.6 °F 81% 30.18 in - North - - N/A   Partly Cloudy
6:20 PM 41.0 °F 35.6 °F 81% 30.18 in - North - - N/A   Partly Cloudy
6:50 PM 41.0 °F 35.6 °F 81% 30.21 in - North - - N/A   Partly Cloudy
7:20 PM 41.0 °F 35.6 °F 81% 30.21 in - North - - N/A   Partly Cloudy
7:50 PM 39.2 °F 35.6 °F 87% 30.21 in - North - - N/A   Partly Cloudy
8:00 PM 38 °F 36 °F 88% 30.22 in 6 mi Calm Calm - -   Scattered Clouds
8:20 PM 39.2 °F 35.6 °F 87% 30.21 in - North - - N/A   Partly Cloudy
8:50 PM 37.4 °F 35.6 °F 93% 30.21 in - North - - N/A   Partly Cloudy
9:20 PM 37.4 °F 35.6 °F 93% 30.21 in - North - - N/A   Partly Cloudy
9:50 PM 37.4 °F 35.6 °F 93% 30.21 in - North - - N/A   Partly Cloudy
10:20 PM 37.4 °F 35.6 °F 93% 30.21 in - North - - N/A   Partly Cloudy
10:50 PM 39.2 °F 37.4 °F 93% 30.24 in - North - - N/A   Partly Cloudy
11:20 PM 39.2 °F 37.4 °F 93% 30.24 in - North - - N/A   Partly Cloudy
11:50 PM 39.2 °F 35.6 °F 87% 30.21 in - North - - N/A   Partly Cloudy